This is the latest recevied weather packets stored in our database for station/object EA3ANS-1. If no packets are shown the sender has not sent any weather packets the latest 10 day(s).
| Time | Temp. | Humidity | Pressure | Rain* | Wind** | Luminosity | Snow |
|---|---|---|---|---|---|---|---|
| 1777643469 | 22.22° C | - | 1021 hPa | 0 mm | 3.58 m/s, 205° | - | - |
| 1777642871 | 21.67° C | - | 1021 hPa | 0 mm | 4.47 m/s, 158° | - | - |
| 1777642271 | 21.67° C | - | 1020.8 hPa | 0 mm | 4.92 m/s, 146° | - | - |
| 1777641666 | 22.22° C | - | 1020.9 hPa | 0 mm | 3.13 m/s, 97° | - | - |
| 1777641069 | 21.67° C | - | 1020.8 hPa | 0 mm | 3.58 m/s, 167° | - | - |
| 1777639867 | 22.22° C | - | 1020.8 hPa | 0 mm | 3.58 m/s, 138° | - | - |
| 1777638664 | 23.33° C | - | 1020.6 hPa | 0 mm | 3.13 m/s, 28° | - | - |
| 1777638067 | 22.78° C | - | 1020.7 hPa | 0 mm | 3.58 m/s, 149° | - | - |
| 1777636866 | 23.89° C | - | 1020.6 hPa | 0 mm | 2.68 m/s, 79° | - | - |
| 1777635668 | 23.89° C | - | 1020.8 hPa | 0 mm | 4.47 m/s, 11° | - | - |
| 1777635070 | 23.33° C | - | 1020.8 hPa | 0 mm | 3.13 m/s, 83° | - | - |
| 1777634473 | 23.33° C | - | 1020.9 hPa | 0 mm | 4.47 m/s, 127° | - | - |
| 1777633876 | 23.33° C | - | 1021 hPa | 0 mm | 3.13 m/s, 27° | - | - |
| 1777633273 | 22.78° C | - | 1021 hPa | 0 mm | 4.47 m/s, 89° | - | - |
| 1777632660 | 22.22° C | - | 1021.2 hPa | 0 mm | 2.68 m/s, 136° | - | - |
| 1777632063 | 23.33° C | - | 1021.2 hPa | 0 mm | 2.68 m/s, 191° | - | - |
| 1777631462 | 22.22° C | - | 1021.2 hPa | 0 mm | 3.58 m/s, 142° | - | - |
| 1777630864 | 22.78° C | - | 1021.4 hPa | 0 mm | 3.58 m/s, 86° | - | - |
| 1777630263 | 22.22° C | - | 1021.3 hPa | 0 mm | 3.58 m/s, 77° | - | - |
| 1777629665 | 22.22° C | - | 1021.1 hPa | 0 mm | 4.47 m/s, 17° | - | - |
| 1777629063 | 21.67° C | - | 1021.2 hPa | 0 mm | 2.68 m/s, 96° | - | - |
| 1777628465 | 22.22° C | - | 1021.2 hPa | 0 mm | 4.02 m/s, 73° | - | - |
| 1777627868 | 21.67° C | - | 1021.2 hPa | 0 mm | 3.13 m/s, 93° | - | - |
| 1777627270 | 21.11° C | - | 1021.2 hPa | 0 mm | 3.13 m/s, 118° | - | - |
| 1777626673 | 21.67° C | - | 1021.2 hPa | 0 mm | 1.34 m/s, 200° | - | - |
* Rain latest hour (hover to see other rain measurements)
** Current wind speed in m/s (hover to see current wind gust speed)